Location: Ariel
(45.9570°N, 122.5700°W)
Time: 15:41:41
(UTC-07:00)

Transit 4A - Pass Details

Date: 21 July 2019
Orbit: 863 x 981 km, 66.8° (Epoch: 18 August)

Event Time Altitude Azimuth Distance (km) Brightness Sun altitude
Exits shadow 01:06:42 15° 111° (ESE) 2,349 9.8 -23.5°
Maximum altitude 01:07:35 16° 102° (ESE) 2,327 9.8 -23.5°
Drops below altitude 10° 01:11:12 10° 67° (ENE) 2,738 10.6 -23.5°
Sets 01:14:51 0° 47° (NE) 3,692 11.6 -23.5°
